Вернуться в каталог

STARLINK-35835

АктивенСвязьVLEO
NORAD 66569·PAYLOAD·🇺🇸 United States

Запущен Nov 21, 2025 с Cape Canaveral Space Force Station

Loading…

Ближайшие Пролёты (ближайшие 24 часа)

TLE

СвежийSource: CelesTrak SupGP

Эпоха: Sep 14, 2026, 23:20 UTC

1 66569C 25268N   26257.97270833 -.00021753  00000+0 -78788-3 0  2573
2 66569  43.0030 357.7005 0001423 267.8757  56.2390 15.27589841    19

Отслеживайте STARLINK-35835 в реальном времени с AllMySat

Download on the App Store